Santa Barbara, CA

5:48 PM PST on December 05, 2016 (GMT -0800)
Santa Barbara Municipal

Weather History for KSBA - September, 2012

Change the Weather History Date:

Friday, September 14, 2012

  Actual Average Record
Temperature  
Mean Temperature 70 °F 65 °F  
Max Temperature 81 °F 74 °F 87 °F (2014)
Min Temperature 58 °F 56 °F 46 °F (1952)
Degree Days  
Heating Degree Days 0 1  
Month to date heating degree days 1 14  
Since 1 July heating degree days 67 65  
Cooling Degree Days 5 2  
Month to date cooling degree days 39 28  
Year to date cooling degree days 160 155  
Growing Degree Days 20 (Base 50)    
Moisture  
Dew Point 60 °F    
Average Humidity 74    
Maximum Humidity 97    
Minimum Humidity 51    
Precipitation  
Precipitation 0.00 in 0.00 in 0.02 in (2015)
Month to date precipitation 0.08 0.05  
Year to date precipitation 6.80 12.25  
Since 1 July precipitation 0.10  
Sea Level Pressure  
Sea Level Pressure 29.95 in    
Wind  
Wind Speed 4 mph (SE)    
Max Wind Speed 12 mph    
Max Gust Speed 21 mph    
Visibility 9 miles    
Events      
T = Trace of Precipitation, MM = Missing Value Source: NWS Daily Summary

Daily Weather History Graph

Daily Weather History Graph

Search for Another Location

Airport or City:

Trip Planner

Search our weather history database for the weather conditions in past years. The results will help you decide how hot, cold, wet, or windy it might be!

Date:

Astronomy

Sep. 14, 2012 Rise Set
Actual Time 6:42 AM PDT 7:06 PM PDT
Civil Twilight 6:16 AM PDT 7:31 PM PDT
Nautical Twilight 5:47 AM PDT 8:01 PM PDT
Astronomical Twilight 5:17 AM PDT 8:31 PM PDT
Moon 5:13 AM PDT (9/14) 6:05 PM PDT (9/14)
Length of Visible Light 13h 14m
Length of Day
12h 24m
Waning Crescent, 2% of the Moon is Illuminated
Sep 14
Waning Crescent
Sep 15
New
Sep 22
First Quarter
Sep 29
Full
Oct 8
Last Quarter

Hourly Weather History & Observations

Time (PDT) Temp. Heat Index Dew Point Humidity Pressure Visibility Wind Dir Wind Speed Gust Speed Precip Events Conditions
12:53 AM 62.1 °F - 60.1 °F 93% 29.96 in 7.0 mi Calm Calm - N/A   Clear
1:53 AM 62.1 °F - 59.0 °F 90% 29.95 in 8.0 mi Calm Calm - N/A   Clear
2:53 AM 60.1 °F - 59.0 °F 96% 29.94 in 7.0 mi East 3.5 mph - N/A   Clear
3:53 AM 62.1 °F - 59.0 °F 90% 29.94 in 9.0 mi ENE 3.5 mph - N/A   Clear
4:53 AM 61.0 °F - 59.0 °F 93% 29.94 in 9.0 mi Calm Calm - N/A   Clear
5:53 AM 60.1 °F - 57.0 °F 90% 29.95 in 10.0 mi NE 3.5 mph - N/A   Clear
6:53 AM 59.0 °F - 57.0 °F 93% 29.96 in 10.0 mi NE 11.5 mph 20.7 mph N/A   Clear
7:09 AM 59.0 °F - 57.2 °F 94% 29.97 in 7.0 mi Calm Calm - N/A   Clear
7:53 AM 64.9 °F - 62.1 °F 90% 29.98 in 7.0 mi Calm Calm - N/A   Clear
8:53 AM 66.9 °F - 62.1 °F 84% 29.99 in 8.0 mi SSE 4.6 mph - N/A   Clear
9:53 AM 71.1 °F - 63.0 °F 75% 30.00 in 10.0 mi SSE 5.8 mph - N/A   Clear
10:53 AM 77.0 °F - 62.1 °F 60% 30.00 in 10.0 mi WSW 6.9 mph - N/A   Clear
11:53 AM 73.9 °F - 62.1 °F 66% 30.00 in 10.0 mi West 8.1 mph - N/A   Clear
12:53 PM 78.1 °F - 61.0 °F 56% 29.99 in 10.0 mi WSW 6.9 mph - N/A   Clear
1:53 PM 79.0 °F - 59.0 °F 50% 29.98 in 10.0 mi SSW 5.8 mph - N/A   Clear
2:53 PM 80.1 °F 80.9 °F 60.1 °F 50% 29.95 in 10.0 mi SW 4.6 mph - N/A   Clear
3:53 PM 75.9 °F - 62.1 °F 62% 29.94 in 10.0 mi SSE 6.9 mph - N/A   Clear
4:53 PM 77.0 °F - 61.0 °F 58% 29.92 in 10.0 mi Calm Calm - N/A   Clear
5:53 PM 72.0 °F - 62.1 °F 71% 29.92 in 10.0 mi SSW 3.5 mph - N/A   Clear
6:53 PM 68.0 °F - 61.0 °F 78% 29.91 in 9.0 mi Calm Calm - N/A   Clear
7:53 PM 64.9 °F - 60.1 °F 84% 29.91 in 8.0 mi Calm Calm - N/A   Clear
8:53 PM 64.0 °F - 61.0 °F 90% 29.92 in 7.0 mi SE 3.5 mph - N/A   Clear
9:53 PM 64.0 °F - 61.0 °F 90% 29.93 in 7.0 mi Calm Calm - N/A   Clear
10:53 PM 64.0 °F - 60.1 °F 87% 29.94 in 8.0 mi East 3.5 mph - N/A   Clear
11:53 PM 64.0 °F - 61.0 °F 90% 29.94 in 7.0 mi East 4.6 mph - N/A   Clear